Location: Unspecified
(0.0000°N, 0.0000°E)
Time: 02:14:22
(UTC+00:00)

Tiangong 2 - Visible Passes

Search period start: 20 September 2018 00:00
Search period end: 30 September 2018 00:00
Orbit: 384 x 394 km, 42.8° (Epoch: 19 September)

Date Brightness Start Highest point End Pass type
(mag) Time Alt. Az. Time Alt. Az. Time Alt. Az.
22 Sep 4.1 19:33:31 10° NNW 19:33:46 12° NNW 19:33:46 12° NNW visible
23 Sep 2.7 18:36:13 10° N 18:38:32 19° NE 18:39:18 17° ENE visible
24 Sep 2.0 19:14:06 10° WNW 19:17:08 44° SW 19:17:20 43° SSW visible
25 Sep 1.2 18:15:57 10° NW 18:19:04 58° NE 18:22:11 10° SE visible
26 Sep 4.0 18:55:42 10° W 18:57:40 15° SW 18:59:38 10° S visible
27 Sep 4.1 04:50:11 10° SSE 04:51:55 14° SE 04:53:39 10° ESE visible
29 Sep 2.4 04:31:17 27° S 04:32:25 38° SE 04:35:25 10° ENE visible
